Home   Weather   Huntington Beach   Past weeks

Flag for USA Past Weather in Huntington Beach, California, USA — Yesterday and Last 2 Weeks

Now
60 °F

Sunny.


Feels Like: 60 °F
Forecast: 59 / 75 °F
Wind: No wind

Location: John Wayne Airport-Orange County Airport

Current Time: Apr 30, 2017 at 8:05:34 am

Latest Report: Apr 30, 2017 at 6:53 am


Visibility: 10 mi

Pressure: 30.05 "Hg

Humidity: 42%

Dew Point: 37 °F

Location of Huntington BeachLocation

Past Weather in Huntington Beach — Graph

°F

Huntington Beach Temperature Yesterday

Maximum temperature yesterday: 88 °F (at 2:53 pm)
Minimum temperature yesterday: 65 °F (at 11:53 pm)
Average temperature yesterday: 76 °F

High & Low Weather Summary for the Past Weeks

 TemperatureHumidityPressure
High88 °F (Apr 29, 2:53 pm)97% (Apr 18, 11:07 pm)30.14 "Hg (Apr 18, 11:07 pm)
Low53 °F (Apr 15, 6:53 am)6% (Apr 29, 1:53 pm)29.72 "Hg (Apr 28, 4:53 pm)
Average66 °F65%29.94 "Hg
* Reported Apr 15 6:53 am — Apr 30 6:53 am, Huntington Beach, Weather by CustomWeather, © 2017

Note: Actual official high and low records may vary slightly from our data, if they occured in-between our weather recording intervals... More about our weather records

Advertising

Huntington Beach Weather History for the Previous 24 Hours

Scroll right to see more
 ConditionsComfort  
Time TempWeatherWind HumidityBarometerVisibility
6:53 am
Sun, Apr 30
60 °FSunny.No wind42%30.05 "Hg10 mi
5:53 am59 °FClear.No wind42%30.03 "Hg10 mi
4:53 am58 °FClear.No wind46%30.04 "Hg10 mi
3:53 am61 °FClear.No wind52%30.04 "Hg10 mi
2:53 am61 °FClear.3 mph44%30.05 "Hg10 mi
1:53 am63 °FClear.No wind50%30.05 "Hg10 mi
12:53 am64 °FClear.No wind52%30.05 "Hg10 mi
11:53 pm
Sat, Apr 29
65 °FMild.5 mph51%30.05 "Hg10 mi
10:53 pm69 °FClear.No wind26%30.03 "Hg10 mi
9:53 pm71 °FClear.No wind22%30.04 "Hg10 mi
8:53 pm72 °FClear.3 mph22%30.02 "Hg10 mi
7:53 pm74 °FClear.5 mph17%30.00 "Hg10 mi
6:53 pm77 °FSunny.10 mph14%29.97 "Hg10 mi
5:53 pm81 °FSunny.9 mph12%29.95 "Hg10 mi
4:53 pm81 °FSunny.12 mph12%29.94 "Hg10 mi
3:53 pm83 °FSunny.13 mph10%29.94 "Hg10 mi
2:53 pm88 °FSunny.8 mph7%29.95 "Hg10 mi
1:53 pm87 °FSunny.15 mph6%29.96 "Hg10 mi
12:53 pm86 °FSunny.16 mph7%29.98 "Hg10 mi
11:53 am83 °FSunny.21 mph7%29.99 "Hg10 mi
10:53 am82 °FSunny.22 mph9%29.98 "Hg10 mi
9:53 am78 °FSunny.18 mph8%29.98 "Hg10 mi
8:53 am75 °FSunny.14 mph10%29.98 "Hg10 mi
Weather by CustomWeather, © 2017

See weather overviewHow to use our weather pages